Flag for U.S.A. Weather past 2 weeks in Escondido, California, U.S.A.

Now
97 °F

Sunny.


Feels Like: 94 °F
Forecast: 67 / 95 °F
Wind: 10 mph from Northwest

Location: Ramona Airport

Current Time: Aug 29, 2015 at 12:55:25 PM

Latest Report: Aug 29, 2015 at 11:53 AM


Visibility: 10 mi

Pressure: 29.88 "Hg

Humidity: 20%

Dew point: 50 °F

Location of EscondidoLocation

Historic Weather in Escondido — Graph

°F

Escondido temperature yesterday

Maximum temperature yesterday: 100 °F (at 11:53 AM)
Minimum temperature yesterday: 67 °F (at 4:53 AM)
Average temperature yesterday: 83 °F

Past Weeks' High & Low Weather Summary

 TemperatureHumidityPressure
High102 °F (Aug 15, 1:53 PM)100% (Aug 23, 6:53 AM)30.01 "Hg (Aug 23, 6:53 AM)
Low55 °F (Aug 19, 4:53 AM)10% (Aug 16, 1:53 PM)29.80 "Hg (Aug 16, 3:53 PM)
Average76 °F57%29.89 "Hg
* Reported Aug 14 11:53 AM — Aug 29 11:53 AM, Escondido, Weather by CustomWeather, © 2015

Note: Actual official high and low records may vary slightly from our data, if they occured in-between our weather recording intervals... More about our weather records

Advertising

Escondido weather history for previous 24 hours

 ConditionsComfort  
Time TempWeatherWind HumidityBarometerVisibility
11:53 AM
Sat, Aug 29
97 °FSunny.10 mph20%29.88 "Hg10 mi
10:53 AM93 °FSunny.7 mph22%29.89 "Hg10 mi
9:53 AM90 °FSunny.7 mph24%29.89 "Hg10 mi
8:53 AM85 °FSunny.No wind30%29.88 "Hg10 mi
7:53 AM75 °FSunny.5 mph43%29.88 "Hg10 mi
6:53 AM66 °FClear.No wind56%29.88 "Hg10 mi
5:53 AM64 °FClear.3 mph61%29.85 "Hg10 mi
4:53 AM64 °FClear.No wind56%29.85 "Hg10 mi
3:53 AM66 °FClear.No wind56%29.84 "Hg10 mi
2:53 AM66 °FClear.No wind56%29.85 "Hg10 mi
1:53 AM68 °FClear.No wind53%29.86 "Hg10 mi
11:53 PM
Fri, Aug 28
71 °FClear.No wind47%29.86 "Hg10 mi
10:53 PM74 °FClear.No wind45%29.86 "Hg10 mi
9:53 PM74 °FClear.5 mph45%29.86 "Hg10 mi
8:53 PM78 °FClear.No wind40%29.86 "Hg10 mi
7:53 PM83 °FSunny.5 mph36%29.84 "Hg10 mi
6:53 PM89 °FSunny.6 mph27%29.83 "Hg10 mi
5:53 PM93 °FSunny.9 mph23%29.83 "Hg10 mi
4:53 PM95 °FSunny.9 mph19%29.82 "Hg10 mi
3:53 PM97 °FSunny.13 mph19%29.82 "Hg10 mi
2:53 PM97 °FSunny.16 mph18%29.84 "Hg10 mi
1:53 PM98 °FSunny.14 mph19%29.85 "Hg10 mi
12:53 PM100 °FSunny.13 mph18%29.85 "Hg10 mi
Weather by CustomWeather, © 2015

See weather overviewHow to use our weather pages